Location: Luxembourg
(49.6117°N, 6.1300°E)
Time: 04:14:10
(UTC+01:00)

ISS - Pass Details

Date: 29 January 2019
Orbit: 403 x 411 km, 51.6° (Epoch: 21 February)

Event Time Altitude Azimuth Distance (km) Brightness Sun altitude
Rises 18:13:03 0° 247° (WSW) 2,327 2.5 -8.0°
Reaches altitude 10° 18:15:07 10° 246° (WSW) 1,470 0.7 -8.3°
Maximum altitude 18:18:25 79° 160° (SSE) 422 -3.8 -8.8°
Enters shadow 18:21:16 13° 73° (ENE) 1,292 -2.0 -9.2°
